Date,TemperatureHighF,TemperatureAvgF,TemperatureLowF,DewpointHighF,DewpointAvgF,DewpointLowF,HumidityHigh,HumidityAvg,HumidityLow,PressureMaxIn,PressureMinIn,WindSpeedMaxMPH,WindSpeedAvgMPH,GustSpeedMaxMPH,PrecipitationSumIn
2013-3-3,32,29,27,23,17,14,73,61,54,29.79,29.74,6,3,9,0.00
2013-3-4,40,32,26,23,19,14,63,58,47,29.98,29.76,6,3,9,0.00
2013-3-5,44,36,27,29,23,16,69,58,45,30.09,30.01,5,1,8,0.00
2013-3-6,40,37,34,35,28,26,80,71,64,30.06,30.01,6,3,10,0.00
2013-3-7,35,32,29,28,25,21,86,75,63,30.13,30.05,6,3,13,0.05
2013-3-8,38,33,29,30,24,17,86,69,55,30.26,30.06,7,4,14,0.02
2013-3-9,52,37,28,28,14,4,58,39,27,30.38,30.26,5,1,12,0.00
2013-3-10,55,36,22,29,11,-1,36,36,36,30.46,30.33,3,0,0,0.00
2013-3-11,55,43,32,29,18,8,36,36,36,30.37,30.15,3,0,0,0.00
2013-3-12,52,48,39,48,28,20,87,51,36,30.15,29.74,7,0,0,1.12
2013-3-13,39,34,30,36,30,11,92,86,42,29.94,29.84,5,0,0,0.00
2013-3-14,31,30,30,13,13,13,48,48,48,29.96,29.94,8,4,5,0.00
2013-3-15,43,32,22,24,15,6,48,48,48,30.01,29.77,7,2,0,0.00
2013-3-16,40,33,27,27,18,11,81,56,46,29.95,29.78,6,1,6,0.00
2013-3-17,39,30,23,24,13,0,81,52,28,30.37,29.94,6,1,4,0.00
2013-3-18,37,28,18,27,11,3,92,50,31,30.51,30.14,6,0,0,0.25
2013-3-19,38,32,29,34,28,23,92,85,69,30.13,29.77,5,0,0,0.28
2013-3-20,44,32,24,23,15,9,69,51,32,29.92,29.82,8,1,0,0.00
2013-3-21,42,31,26,22,15,8,78,52,33,29.88,29.71,6,1,0,0.00
2013-3-22,42,30,20,22,14,5,62,50,40,29.88,29.77,8,1,0,0.00
2013-3-23,48,36,30,26,17,11,58,47,31,29.94,29.80,9,3,0,0.00
2013-3-24,45,34,24,24,18,10,69,52,39,29.99,29.77,7,1,0,0.00
2013-3-25,47,38,30,28,23,18,72,55,42,29.80,29.55,7,1,0,0.00
2013-3-26,49,39,29,31,23,14,74,54,38,29.89,29.64,8,1,0,0.00
2013-3-27,55,37,24,27,21,13,84,55,31,29.99,29.89,8,1,0,0.00
2013-3-28,50,39,30,35,27,19,78,62,49,30.14,29.99,6,1,0,0.00
2013-3-29,54,42,31,35,26,20,84,54,32,30.18,30.10,7,1,0,0.00
2013-3-30,60,42,30,35,23,6,84,53,22,30.22,30.11,7,1,0,0.00
2013-3-31,57,41,26,38,27,20,85,60,31,30.19,29.75,6,1,0,0.11